Location: Betz
(49.1556°N, 2.9558°E)
Time: 00:53:47
(UTC+00:00)

FREGAT/IRIS - Pass Details

Date: 18 September 2019
Orbit: 347 x 350 km, 97.0° (Epoch: 13 October)

Event Time Altitude Azimuth Distance (km) Brightness Sun altitude
Exits shadow 18:45:18 - 155° (SSE) 1,884 5.7 -8.9°
Reaches altitude 10° 18:46:36 10° 151° (SSE) 1,323 4.9 -9.1°
Maximum altitude 18:49:20 52° 74° (ENE) 453 2.6 -9.5°
Drops below altitude 10° 18:52:07 10° 357° (N) 1,339 5.5 -10.0°
Sets 18:54:05 0° 352° (N) 2,190 6.7 -10.3°
